www.pogodaiklimat.ru

Погода и климат >> Архив погоды >> Беларусь >> Кличев


ПОГОДА в Кличеве

  • Прогноз погоды в Кличеве
  • Монитор погоды в Кличеве
  • Климат города

АРХИВ ПОГОДЫ в Кличеве

Время (UTC), дата Ветер
(напр.,м/с)
 
Видим.   Явления Облачность Т
(С)
Тd
(С)
f
(%)
Тe
(С)
Тes
(С)
Комфортность P
(гПа)
Po
(гПа)
Тmin
(С)
Tmax
(С)
R
(мм)
R24
(мм)
S
(см)
21 15.10 штиль 0 4000 м дымка ясно +2.7 +2.1 96 +1 +1 1028.8 1009.3
00 16.10 штиль 0 4000 м дымка ясно +1.4 +1.0 97 0 0 1028.8 1009.2
03 16.10 штиль 0 4000 м дымка ясно +0.6 +0.2 97 -1 -1 1029.0 1009.3
06 16.10 штиль 0 4000 м дымка ясно +3.0 +2.7 98 +2 +2 1028.4 1008.9 -1.1
09 16.10 Ю 1 20 км ясно +16.6 +9.0 61 +18 +22 1027.4 1008.9
12 16.10 Ю 2 20 км ясно +19.7 +8.7 49 +21 +24 комфорт 1026.1 1007.9
15 16.10 штиль 0 20 км ясно +15.9 +8.9 63 +16 +16 1025.9 1007.4
18 16.10 штиль 0 4000 м дымка ясно +6.8 +5.7 93 +6 +6 1026.4 1007.2 +20.7
21 16.10 штиль 0 4000 м дымка ясно +4.5 +3.9 96 +3 +3 1026.6 1007.3
00 17.10 штиль 0 4000 м дымка ясно +2.2 +1.6 96 +1 +1 1026.8 1007.3
03 17.10 штиль 0 4000 м дымка ясно +0.7 +0.4 98 -1 -1 1026.8 1007.2
06 17.10 штиль 0 4000 м дымка ясно +3.9 +3.2 95 +3 +3 1027.0 1007.6 -0.1
09 17.10 Ю 1 20 км ясно +17.5 +10.1 62 +19 +23 1026.5 1008.1
12 17.10 Ю 1 20 км ясно +21.4 +8.6 44 +23 +26 комфорт 1025.3 1007.2
15 17.10 штиль 0 20 км ясно +16.5 +8.7 60 +16 +16 1025.0 1006.6
18 17.10 штиль 0 4000 м дымка ясно +6.2 +5.3 94 +5 +5 1025.8 1006.6 +21.8
21 17.10 штиль 0 4000 м дымка ясно +4.5 +4.1 97 +3 +3 1026.1 1006.8
00 18.10 штиль 0 4000 м дымка ясно +3.4 +3.0 97 +2 +2 1025.9 1006.5
03 18.10 штиль 0 4000 м дымка ясно +2.7 +2.3 97 +1 +1 1025.0 1005.6
06 18.10 штиль 0 4000 м дымка ясно +5.9 +5.6 98 +5 +5 1024.4 1005.2 +1.9
09 18.10 Ю 1 10 км ясно +18.4 +12.2 67 +20 +24 1023.0 1004.7
12 18.10 Ю 1 20 км ясно +22.2 +11.6 51 +24 +27 комфорт 1020.8 1002.8
15 18.10 штиль 0 20 км ясно +17.0 +10.8 67 +17 +17 1019.8 1001.5
18 18.10 штиль 0 4000 м дымка ясно +8.3 +7.5 95 +7 +7 1019.9 1001.0 +22.3
21 18.10 штиль 0 4000 м дымка ясно +4.4 +4.0 97 +3 +3 1019.9 1000.7
00 19.10 штиль 0 4000 м дымка ясно +3.0 +2.6 97 +2 +2 1019.4 1000.1
03 19.10 штиль 0 4000 м дымка 4/4 600 м
[Sc]
+3.1 +2.8 98 +2 +2 1018.7 999.4
06 19.10 штиль 0 4000 м дымка ясно +3.5 +3.4 99 +2 +3 1018.8 999.5 +1.6
09 19.10 СЗ 1 10 км 3/0
[Ci fib]
+14.3 +12.3 88 +15 +18 1018.3 999.8
12 19.10 З 1 20 км 4/0
[Ci fib]
+18.9 +11.2 61 +21 +23 комфорт 1017.5 999.4
15 19.10 СЗ 2 10 км 4/0
[Ci fib]
+13.3 +9.7 79 +13 +13 1018.0 999.5
18 19.10 С 2 10 км 6/0
[Cs]
+10.3 +8.7 90 +9 +9 1019.8 1001.0 +19.2
21 19.10 С 1 4000 м дымка 6/0
[Cs]
+8.4 +7.8 96 +7 +7 1021.0 1002.1
00 20.10 С 1 4000 м дымка 8/6 900 м
[Sc Cs]
+9.8 +9.3 97 +9 +9 1021.1 1002.3
03 20.10 С 1 4000 м дымка ясно +5.7 +5.1 96 +4 +4 1022.3 1003.1
06 20.10 С 2 4000 м в посл. час туман ясно +4.8 +4.5 98 +2 +2 1022.9 1003.7 +2.6
09 20.10 СВ 1 20 км ясно +11.5 +7.2 75 +11 +15 1023.0 1004.2
12 20.10 В 2 20 км 3/3 600 м
[Sc]
+12.9 +1.9 47 +12 +14 1021.7 1003.1
15 20.10 штиль 0 20 км 4/4 600 м
[Sc]
+9.9 +3.4 64 +9 +9 1021.9 1003.0
18 20.10 штиль 0 20 км 8/8 840 м
[St]
+5.6 +3.3 85 +5 +5 1022.6 1003.4 +13.3
21 20.10 штиль 0 4000 м дымка 6/0
[Ac trans]
+2.8 +1.9 94 +2 +2 1023.2 1003.8
00 21.10 штиль 0 4000 м дымка 6/0
[Ac trans]
+0.5 +0.1 97 -1 -1 1023.8 1004.2
03 21.10 штиль 0 4000 м дымка 8/0
[Ac und]
+0.9 +0.5 97 -0 -0 1024.1 1004.5
06 21.10 штиль 0 4000 м дымка 8/0
[Ac und]
+2.9 +2.5 97 +2 +2 1025.5 1006.1 -0.8
09 21.10 СВ 1 20 км 3/0
[Ac und]
+9.2 +4.4 72 +9 +12 1026.3 1007.3
12 21.10 СВ 2 20 км ясно +11.8 +2.3 52 +11 +13 1025.6 1006.8
15 21.10 С 2 20 км 8/8 900 м
[Sc]
+8.9 +0.8 57 +8 +8 1026.2 1007.2
18 21.10 штиль 0 10 км ясно +0.5 -1.3 88 -1 -1 1027.5 1007.9 +12.3
21 21.10 штиль 0 4000 м дымка ясно -1.6 -2.3 95 -3 -3 1028.1 1008.3
00 22.10 штиль 0 4000 м дымка ясно -3.3 -3.8 96 -5 -5 1027.9 1008.0
03 22.10 штиль 0 4000 м дымка ясно -4.3 -4.7 97 -6 -6 1027.2 1007.2
06 22.10 штиль 0 4000 м дымка ясно -1.2 -1.6 97 -3 -2 1026.5 1006.7 -5.3
09 22.10 ЮЗ 1 10 км ясно +8.9 +3.9 71 +8 +12 1024.7 1005.7
12 22.10 З 3 20 км 3/3 600 м
[Sc]
+11.6 +2.3 53 +10 +12 1021.6 1002.9
15 22.10 ЮЗ 1 20 км 6/0
[Cs]
+7.2 +1.9 69 +7 +7 1019.8 1000.8
18 22.10 штиль 0 10 км ясно +2.8 +0.9 87 +2 +2 1018.7 999.4 +12.0

 

Местоположение метеостанции Кличев (Могилевская область, Беларусь): широта 53.50 долгота 29.32 высота над уровнем моря 155 м.

В архиве по умолчанию представлена погода в Кличеве за последнюю неделю. Архивные данные за месяц целиком и за предыдущие месяцы, начиная с января 2011 года, Вы можете получить, выбрав интересующий диапазон дат из раскрывающегося списка и нажав кнопку "Ввод!".


*Определитесь, кто Вы:
робот инопланетянин человек

Внимание! Время в таблицах - всемирное. Для получения местного времени необходимо прибавить поправку, которая в Кличеве равна 3 ч.

Смотрите также архив погоды в соседних городах и на ближайших метеорологических станциях:

Погода в Бобруйске (Могилевская область, Беларусь) (35 км)
Погода в Березино (Минская область, Беларусь) (43 км)
Погода в Могилеве (Могилевская область, Беларусь) (72 км)
Погода в Марьиной Горке (Минская область, Беларусь) (79 км)
Погода в Могилев городе (Могилевская область, Беларусь) (80 км)
Погода в Жлобине (Гомельская область, Беларусь) (82 км)
Погода в Борисове (Минская область, Беларусь) (101 км)
Погода в Октябре (Гомельская область, Беларусь) (101 км)
Погода в Славгороде (Могилевская область, Беларусь) (111 км)
Погода в Минске (город Минск, Беларусь) (121 км)

Пояснения к столбцам:

Ветер - указаны скорость ветра в м/с - средняя за 10 мин, порывы в срок и между сроками (в фигурных скобках) и направление, откуда дует ветер: С - северный, СВ - северо-восточный, В - восточный, ЮВ - юго-восточный, Ю - южный, ЮЗ - юго-западный, З - западный, СЗ - северо-западный.
Видимость - горизонтальная дальность видимости в метрах или километрах. При видимости от 1 до 10 км при отсутствии осадков обычно наблюдается дымка, при ухудшении видимости до 1 км и менее - туман. В сухую погоду видимость может ухудшаться дымом, пылью или мглою.
Явления - указаны атмосферные явления, наблюдавшиеся в срок или в последний час перед сроком; фигурными скобками обозначены явления, наблюдавшиеся между сроками (за 1-3 часа до срока); квадратными скобками обозначены град или гололедные отложения с указанием их диаметра в мм.
Облачность - указаны через наклонную черту общая и нижняя облачность в баллах и высота нижней границы облаков в метрах; квадратными скобками обозначены формы облаков: Ci - перистые, Cs - перисто-слоистые, Cc - перисто-кучевые, Ac - высококучевые, As - высокослоистые, Sc - слоисто-кучевые, Ns - слоисто-дождевые, Cu - кучевые, Cb - кучево-дождевые. Подробнее классификацию облаков см. в Атласе облаков (PDF).
T - Температура воздуха - температура, измеренная на высоте 2 м над землей.
Td - Температура точки росы - температура, при понижении до которой содержащийся в воздухе водяной пар достигнет насыщения.
f - Относительная влажность воздуха - влажноcть воздуха, измеренная на высоте 2 м над землей.
Te - Эффективная температура - температура, которую ощущает одетый по сезону человек в тени. Характеристика душности погоды. При расчете учитывается влияние влажности воздуха и скорости ветра на теплоощущения человека.
Tes - Эффективная температура на солнце - температура, которую ощущает человек, с поправкой на солнечный нагрев. Характеристика знойности погоды. Зависит от высоты солнца над горизонтом, облачности и скорости ветра. Ночью, в пасмурную погоду, а также при ветре 12 м/с и более поправка равна нулю.
P - Атмосферное давление - приведенное к уровню моря атмосферное давление.
Po - Атмосферное давление - измеренное на уровне метеостанции атмосферное давление.
Tmin - Минимальная температура - минимум температуры воздуха на высоте 2 м над землей.
Tmax - Максимальная температура - максимум температуры воздуха на высоте 2 м над землей.
R - Количество осадков - Количество выпавших осадков за период времени, мм. При наведении курсора мыши на число - период времени, за который выпало указанное количество осадков.
R24 - Количество осадков - Количество выпавших осадков за 24 часа, мм.
S - Снежный покров - Высота снежного покрова, см. При наведении курсора мыши на число - состояние снежного покрова и степень покрытия местности в баллах.